Погода в Калаче

Погода в Калаче : погода сейчас, прогноз погоды и архив. Всё, что Вы хотите узнать о погоде в Калаче!

Поиск расширенной информации на нашем сайте:

Другие новости

Новости СМИ2

Главная страница сайта

Новости сайта

03.07.2017

Напоминаем, что на нашем специализированном сайте Метеоцентр.Азия вы можете получить высокодетализированные автоматические прогнозы погоды по пунктам России, СНГ и мира в авиационном формате (включающие направление и скорость ветра, видимость, явления погоды, количество и форму облачности, нижнюю и верхнюю границу облачности).


Погода в Калаче - сегодня

Время (UTC), дата Ветер
(°,м/с) 
Видим.   Явления Облачность Т
(°С)
Тd
(°С)
f(%) Тe
(°С)
Pmin
(гПа)
dP
(гПа)
Po
(мм)
O2
(г/м3)
Тmin Tmax R s Состояние
почвы
21 17.10.18 тихо ()   10 км    ясно 
+5.8 +4.2 89 +6  1025.8  0.1  761  300           
00 18.10.18 тихо ()   10 км    ясно 
+3.2 +2.4 94 +3  1026.3  0.5  761  303           
03 18.10.18 тихо ()   10 км    ясно 
+1.4 +0.9 96 +1  1026.3  -0.1  761  305  +1.4         
06 18.10.18 тихо ()   10 км    ясно 
+7.3 +4.1 80 +7  1026.3  0.2  761  298  +0.6         
09 18.10.18 080 (В) 20000 м    ясно 
+17.2 +7.2 52 +19  1025.4  -0.5  761  287           
12 18.10.18 310 (СЗ) 20000 м    ясно 
+20 +5.7 39 +20  1024.4  -0.9  760  285           
15 18.10.18 тихо ()   10 км    ясно 
+13 +8.6 75 +13  1023.6  -1  759  291    +21       
18 18.10.18 тихо ()   10 км    ясно 
+6.5 +4.9 89 +7  1024.3  0.4  760  298           
21 18.10.18 тихо ()   4000 м  дымка  ясно 
+3.4 +2.9 97 +3  1024.5  0.1  760  302           
00 19.10.18 тихо ()   4000 м  дымка  ясно 
+1.5 +1 96 +2  1025  0.4  760  304           
06 19.10.18 тихо ()   4000 м  дымка  ясно 
+4.7 +2.7 87 +5  1023.7  -0.7  759  300  -0.5         
09 19.10.18 190 (Ю) 20000 м    1/0 верхняя 
[Ci fib]
+16.8 +7.2 53 +17  1022.2  -0.9  758  287           
12 19.10.18 170 (Ю) 20000 м    3/0 верхняя 
[Ci fib]
+19.2 +4.2 37 +20  1020.5  -1.7  757  284           
18 19.10.18 тихо ()   10 км    ясно 
+5.5 +3.3 86 +6  1018.9  -0.8  756  298           
21 19.10.18 050 (СВ) 10 км    ясно 
+3.7 +2.5 92 +5  1018.6  -0.4  755  300           
00 20.10.18 тихо ()   10 км    ясно 
+1.9 +1.1 94 +2  1018.4  -0.3  755  302           
03 20.10.18 тихо ()   10 км    ясно 
+0.9 +0.4 96 +1  1017.6  -0.7  755  303  +0.4         
06 20.10.18 тихо ()   10 км    8/3 2000 м средняя, верхняя 
[Ac trans|Ci fib]
+5.6 +3.9 89 +6  1017.3  -0.1  755  297           
09 20.10.18 320 (СЗ) 10 км    10/10 600 м 
[Sc]
+10.3 +8.9 91 +11  1017.1  755  291           
18 20.10.18 тихо ()   10 км    9/9 2000 м средняя 
[Ac lent]
+9.6 +9 96 +10  1017  754  292           
21 20.10.18 тихо ()   10 км    10/10 600 м 
[Sc]
+9.5 +8.9 96 +10  1017.2  0.2  755  292           
06 21.10.18 050 (СВ) 10 км    10/10 600 м 
[Sc]
+10.6 +9.2 91 +10  1018  0.6  755  291           
09 21.10.18 050 (СВ) 10 км    10/10 600 м 
[Sc]
+12.2 +10.1 87 +13  1018.8  0.9  756  290           
18 21.10.18 080 (В) 10 км    10/10 600 м 
[Sc]
+12.7 +10.4 86 +15  1019.6  0.4  756  289           
21 21.10.18 080 (В) 10 км    10/10 600 м 
[Sc]
+11.1 +10.3 95 +11  1020.2  0.5  757  291           
Время (UTC), дата Ветер
(°,м/с) 
Видим.   Явления Облачность Т
(°С)
Тd
(°С)
f(%) Тe
(°С)
Pmin
(гПа)
dP
(гПа)
Po
(мм)
O2
(г/м3)
Тmin Tmax R s Состояние
почвы

Для получения пояснительной информации подведите курсор к названию столбца.

ПОГОДА в Калаче - архив

Всё, что Вы хотите узнать о погоде в Калаче - удобно и подробно!

Выберите нужную дату (начиная с 1 января 2015* года) и нажмите кнопку "Найти".
Будут отображены архивные сводки погоды по пункту Калач, начиная с указанной даты.


Отображать данные в формате CSV (для использования в таблицах Excel)


Внимание! Наш архив погоды предназначен исключительно для личного некоммерческого использования в познавательных целях. Если Вам необходимы официальные справки о состоянии погоды (для производственных, юридических, коммерческих и т.п. целей), обращайтесь в органы Росгидромета.

*Примечание: данная дата относится к архиву по метеостанциям СССР (Россия, СНГ, Балтия).
Архив по метеостанциям Зарубежной Европы и Азии (кроме Китая) хранится 10 дней, по другим регионам земного шара (Китай, Африка, Америка, Австралия, Океания) - 1 день.

Калач - район местоположения метеостанции


Название, широта, долгота, высота метеостанции:
Калач 50.4°ш. 41.1°д. 92 м над ур. моря [Российская Федерация]

Дополнительная информация

В oтличие oт бoльшинства пoгoдных сайтoв мы публикуем пoдрoбную метеoинфoрмацию в детальнoм прoфессиoнальнoм фoрмате.

Характеристики температуры и влажнoсти вoздуха измеряются на высoте 2 м в тени вдали oт зданий и деревьев.
Скoрoсть ветра измеряется на высoте 10 м (на урoвне рoста челoвека скoрoсть ветра ниже в 1.5-2 раза). Если метеoстанция нахoдится в гoрoде или в лесу, тo скoрoсть ветра занижена на 2-4 м/с пo сравнению с oткрытым местoм. Скoрoсть ветра над акватoриями крупных рек и oзёр, а также на вершинах хoлмoв на 2-5 м/с выше, чем в oбычных услoвиях.
Атмoсфернoе давление в разных тoчках местнoсти мoжет значительнo oтличаться oт давления на метеoстанции, в зависимoсти oт услoвий рельефа (при пoдъёме на 10 м давление пoнижается примернo на 1 мм рт.ст.).